TimeCST,TemperatureF,Dew PointF,Humidity,Sea Level PressureIn,VisibilityMPH,Wind Direction,Wind SpeedMPH,Gust SpeedMPH,PrecipitationIn,Events,Conditions,WindDirDegrees,DateUTC
12:00 AM,-45.4,-9999,N/A,29.62,9.0,ESE,6.9,-,N/A,,Unknown,120,2013-01-09 06:00:00
1:00 AM,-47.2,-9999,N/A,29.65,9.0,ESE,6.9,-,N/A,,Unknown,120,2013-01-09 07:00:00
2:00 AM,-47.2,-9999,N/A,29.65,8.0,East,8.1,-,N/A,,Unknown,100,2013-01-09 08:00:00
3:00 AM,-48,,,29.68,9,ESE,5.8,,,,,120,2013-01-09 09:00:00
3:00 AM,-47.2,-9999,N/A,29.68,9.0,SE,5.8,-,N/A,,Unknown,130,2013-01-09 09:00:00
4:00 AM,-47.2,-9999,N/A,29.68,9.0,ESE,5.8,-,N/A,,Unknown,120,2013-01-09 10:00:00
5:00 AM,-49.0,-9999,N/A,29.69,9.0,ESE,6.9,-,N/A,,Unknown,120,2013-01-09 11:00:00
6:00 AM,-49,,,29.70,6,ESE,6.9,,,,,120,2013-01-09 12:00:00
7:00 AM,-49.0,-9999,N/A,29.70,6.0,ESE,6.9,-,N/A,,Unknown,120,2013-01-09 13:00:00
8:00 AM,-49.0,-9999,N/A,29.71,6.0,ESE,9.2,-,N/A,,Unknown,120,2013-01-09 14:00:00
9:00 AM,-49,,,29.72,7,ESE,4.6,,,,,120,2013-01-09 15:00:00
9:00 AM,-49.0,-9999,N/A,29.72,7.0,SE,5.8,-,N/A,,Unknown,130,2013-01-09 15:00:00
10:44 AM,-47.2,-9999,N/A,29.69,3.0,SE,4.6,-,N/A,,Unknown,140,2013-01-09 16:44:00
11:00 AM,-47.2,-9999,N/A,29.72,2.5,SE,5.8,-,N/A,,Unknown,140,2013-01-09 17:00:00
11:12 AM,-47.2,-9999,N/A,29.69,3.5,SE,8.1,-,N/A,,Unknown,130,2013-01-09 17:12:00
12:00 PM,-47,,,29.72,3,ESE,8.1,,,,,120,2013-01-09 18:00:00
12:00 PM,-47.2,-9999,N/A,29.72,3.5,ESE,6.9,-,N/A,,Unknown,120,2013-01-09 18:00:00
12:23 PM,-47.2,-9999,N/A,29.69,2.0,SE,6.9,-,N/A,,Unknown,130,2013-01-09 18:23:00
12:28 PM,-47.2,-9999,N/A,29.69,1.4,SE,6.9,-,N/A,,Unknown,130,2013-01-09 18:28:00
12:34 PM,-45.4,-9999,N/A,29.68,3.0,SE,6.9,-,N/A,,Unknown,140,2013-01-09 18:34:00
1:00 PM,-45.4,-9999,N/A,29.72,5.0,SE,8.1,-,N/A,,Unknown,140,2013-01-09 19:00:00
1:40 PM,-43.6,-9999,N/A,29.68,5.0,South,5.8,-,N/A,,Unknown,180,2013-01-09 19:40:00
1:41 PM,-43.6,-9999,N/A,29.68,5.0,South,5.8,-,N/A,,Unknown,190,2013-01-09 19:41:00
1:47 PM,-41.8,-9999,N/A,29.68,3.0,South,5.8,-,N/A,,Unknown,180,2013-01-09 19:47:00
2:00 PM,-41.8,-9999,N/A,29.72,1.6,South,5.8,-,N/A,,Unknown,190,2013-01-09 20:00:00
3:00 PM,-36,,,29.72,2,SW,6.9,,,,,230,2013-01-09 21:00:00
3:00 PM,-36.4,-9999,N/A,29.72,1.6,SW,8.1,-,N/A,,Unknown,230,2013-01-09 21:00:00
3:41 PM,-34.6,-9999,N/A,29.68,3.5,WSW,5.8,-,N/A,,Unknown,240,2013-01-09 21:41:00
4:00 PM,-34.6,-9999,N/A,29.72,3.5,WSW,9.2,-,N/A,,Unknown,240,2013-01-09 22:00:00
4:05 PM,-34.6,-9999,N/A,29.68,3.0,SW,10.4,-,N/A,,Unknown,230,2013-01-09 22:05:00
4:17 PM,-34.6,-9999,N/A,29.69,2.2,WSW,5.8,-,N/A,,Unknown,250,2013-01-09 22:17:00
4:30 PM,-34.6,-9999,N/A,29.68,3.5,WSW,6.9,-,N/A,,Unknown,250,2013-01-09 22:30:00
5:00 PM,-34.6,-9999,N/A,29.72,4.0,WSW,6.9,-,N/A,,Unknown,240,2013-01-09 23:00:00
5:05 PM,-34.6,-9999,N/A,29.68,4.0,WSW,8.1,-,N/A,,Unknown,240,2013-01-09 23:05:00
5:35 PM,-34.6,-9999,N/A,29.67,3.0,SW,11.5,-,N/A,,Unknown,230,2013-01-09 23:35:00
5:50 PM,-34.6,-9999,N/A,29.67,4.0,SW,10.4,-,N/A,,Unknown,230,2013-01-09 23:50:00
6:00 PM,-34,,,29.70,4,SW,11.5,,,,,230,2013-01-10 00:00:00
6:00 PM,-34.6,-9999,N/A,29.70,4.0,SW,10.4,-,N/A,,Unknown,230,2013-01-10 00:00:00
6:04 PM,-32.8,-9999,N/A,29.67,3.0,SW,11.5,-,N/A,,Unknown,230,2013-01-10 00:04:00
6:44 PM,-32.8,-9999,N/A,29.67,2.5,WSW,8.1,-,N/A,,Unknown,240,2013-01-10 00:44:00
7:00 PM,-32.8,-9999,N/A,29.70,1.5,WSW,5.8,-,N/A,,Unknown,240,2013-01-10 01:00:00
7:23 PM,-32.8,-9999,N/A,29.67,1.4,WSW,6.9,-,N/A,,Unknown,250,2013-01-10 01:23:00
8:00 PM,-32.8,-9999,N/A,29.70,1.4,West,11.5,-,N/A,,Unknown,260,2013-01-10 02:00:00
8:33 PM,-32.8,-9999,N/A,29.66,1.4,WSW,5.8,-,N/A,,Unknown,250,2013-01-10 02:33:00
8:39 PM,-32.8,-9999,N/A,29.66,3.0,West,6.9,-,N/A,,Unknown,260,2013-01-10 02:39:00
8:44 PM,-32.8,-9999,N/A,29.66,2.5,WSW,8.1,-,N/A,,Unknown,250,2013-01-10 02:44:00
9:00 PM,-32,,,29.70,3,West,8.1,,,,,260,2013-01-10 03:00:00
9:00 PM,-32.8,-9999,N/A,29.70,3.0,West,9.2,-,N/A,,Unknown,260,2013-01-10 03:00:00
9:08 PM,-32.8,-9999,N/A,29.66,2.8,WSW,8.1,-,N/A,,Unknown,250,2013-01-10 03:08:00
9:31 PM,-31.0,-9999,N/A,29.66,2.0,West,9.2,-,N/A,,Unknown,260,2013-01-10 03:31:00
9:37 PM,-31.0,-9999,N/A,29.66,2.0,West,9.2,-,N/A,,Unknown,260,2013-01-10 03:37:00
9:48 PM,-32.8,-9999,N/A,29.66,2.0,West,11.5,-,N/A,,Unknown,260,2013-01-10 03:48:00
9:53 PM,-32.8,-9999,N/A,29.66,2.0,West,11.5,-,N/A,,Unknown,260,2013-01-10 03:53:00
10:00 PM,-32.8,-9999,N/A,29.70,2.0,WSW,6.9,-,N/A,,Unknown,250,2013-01-10 04:00:00
10:05 PM,-32.8,-9999,N/A,29.66,2.5,West,5.8,-,N/A,,Unknown,260,2013-01-10 04:05:00
10:13 PM,-32.8,-9999,N/A,29.66,2.8,WSW,5.8,-,N/A,,Unknown,250,2013-01-10 04:13:00
10:33 PM,-32.8,-9999,N/A,29.67,2.6,WSW,4.6,-,N/A,,Unknown,250,2013-01-10 04:33:00
10:40 PM,-32.8,-9999,N/A,29.67,3.0,WSW,4.6,-,N/A,,Unknown,250,2013-01-10 04:40:00
10:45 PM,-32.8,-9999,N/A,29.67,3.0,WSW,5.8,-,N/A,,Unknown,250,2013-01-10 04:45:00
10:46 PM,-32.8,-9999,N/A,29.67,3.5,WSW,5.8,-,N/A,,Unknown,250,2013-01-10 04:46:00
10:50 PM,-32.8,-9999,N/A,29.67,3.5,WSW,5.8,-,N/A,,Unknown,250,2013-01-10 04:50:00
11:00 PM,-32.8,-9999,N/A,29.71,4.0,WSW,9.2,-,N/A,,Unknown,250,2013-01-10 05:00:00
11:03 PM,-32.8,-9999,N/A,29.67,4.0,West,6.9,-,N/A,,Unknown,260,2013-01-10 05:03:00
11:17 PM,-32.8,-9999,N/A,29.67,4.0,WSW,5.8,-,N/A,,Unknown,250,2013-01-10 05:17:00
11:21 PM,-32.8,-9999,N/A,29.67,4.0,WSW,6.9,-,N/A,,Unknown,250,2013-01-10 05:21:00
11:26 PM,-32.8,-9999,N/A,29.67,3.0,WSW,5.8,-,N/A,,Unknown,250,2013-01-10 05:26:00
11:30 PM,-32.8,-9999,N/A,29.67,2.8,WSW,8.1,-,N/A,,Unknown,250,2013-01-10 05:30:00
11:35 PM,-32.8,-9999,N/A,29.67,3.0,West,9.2,-,N/A,,Unknown,260,2013-01-10 05:35:00
11:40 PM,-32.8,-9999,N/A,29.67,3.0,WSW,9.2,-,N/A,,Unknown,250,2013-01-10 05:40:00
11:51 PM,-31.0,-9999,N/A,29.67,2.2,West,10.4,-,N/A,,Unknown,260,2013-01-10 05:51:00
11:59 PM,-31.0,-9999,N/A,29.67,1.6,West,10.4,-,N/A,,Unknown,260,2013-01-10 05:59:00